TimeEDT,TemperatureF,Dew PointF,Humidity,Sea Level PressureIn,VisibilityMPH,Wind Direction,Wind SpeedMPH,Gust SpeedMPH,PrecipitationIn,Events,Conditions,WindDirDegrees,DateUTC
12:14 AM,52.7,52.3,99,29.87,2.5,Calm,Calm,-,N/A,,Clear,0,2013-08-02 04:14:00
12:35 AM,52.7,52.2,98,29.86,5.0,Calm,Calm,-,N/A,,Clear,0,2013-08-02 04:35:00
12:55 AM,52.9,52.7,99,29.86,1.8,Calm,Calm,-,N/A,,Mist,0,2013-08-02 04:55:00
1:14 AM,52.2,51.4,97,29.85,5.0,Calm,Calm,-,N/A,,Clear,0,2013-08-02 05:14:00
1:35 AM,52.5,52.2,99,29.85,1.8,Calm,Calm,-,N/A,,Scattered Clouds,0,2013-08-02 05:35:00
1:55 AM,51.8,51.6,99,29.84,1.2,Calm,Calm,-,N/A,,Overcast,0,2013-08-02 05:55:00
2:14 AM,51.1,50.9,99,29.83,0.2,Calm,Calm,-,N/A,Fog,Fog,0,2013-08-02 06:14:00
2:35 AM,51.3,51.1,99,29.83,0.5,Calm,Calm,-,N/A,Fog,Fog,0,2013-08-02 06:35:00
2:54 AM,51.1,50.9,99,29.82,10.0,Calm,Calm,-,N/A,,Mostly Cloudy,0,2013-08-02 06:54:00
3:15 AM,50.2,49.6,98,29.81,3.0,Calm,Calm,-,N/A,,Clear,0,2013-08-02 07:15:00
3:35 AM,50.0,49.5,98,29.81,10.0,Calm,Calm,-,N/A,,Clear,0,2013-08-02 07:35:00
3:54 AM,51.3,50.9,99,29.81,10.0,Calm,Calm,-,N/A,,Clear,0,2013-08-02 07:54:00
4:15 AM,50.7,50.0,97,29.81,10.0,Calm,Calm,-,N/A,,Clear,0,2013-08-02 08:15:00
4:34 AM,50.4,49.3,96,29.80,10.0,Calm,Calm,-,N/A,,Mostly Cloudy,0,2013-08-02 08:34:00
4:55 AM,52.3,51.8,98,29.81,10.0,South,3.5,-,N/A,,Mostly Cloudy,190,2013-08-02 08:55:00
5:14 AM,53.2,52.0,95,29.79,10.0,SSE,4.6,-,N/A,,Overcast,160,2013-08-02 09:14:00
5:35 AM,59.0,58.5,98,29.80,10.0,South,3.5,-,N/A,,Mostly Cloudy,170,2013-08-02 09:35:00
5:54 AM,59.9,59.0,97,29.80,10.0,South,3.5,-,N/A,,Mostly Cloudy,170,2013-08-02 09:54:00
6:14 AM,61.0,60.4,98,29.81,10.0,South,3.5,-,N/A,Rain,Rain,190,2013-08-02 10:14:00
6:35 AM,61.9,60.8,96,29.81,10.0,WSW,5.8,-,0.01,,Overcast,250,2013-08-02 10:35:00
6:54 AM,59.9,57.7,93,29.81,10.0,West,6.9,-,0.01,,Overcast,260,2013-08-02 10:54:00
7:15 AM,59.0,56.5,91,29.81,10.0,West,6.9,-,N/A,Rain,Rain,280,2013-08-02 11:15:00
7:35 AM,58.1,56.7,95,29.81,10.0,West,5.8,-,0.01,Rain,Light Rain,270,2013-08-02 11:35:00
7:54 AM,58.3,57.0,96,29.81,7.0,Calm,Calm,-,0.01,Rain,Light Rain,0,2013-08-02 11:54:00
8:15 AM,59.0,57.0,93,29.81,10.0,Calm,Calm,-,N/A,,Light Drizzle,0,2013-08-02 12:15:00
8:35 AM,59.5,58.1,95,29.80,10.0,Calm,Calm,-,N/A,,Overcast,0,2013-08-02 12:35:00
8:54 AM,59.5,58.1,95,29.80,10.0,NNW,4.6,-,N/A,,Mostly Cloudy,340,2013-08-02 12:54:00
9:15 AM,62.4,58.6,87,29.80,10.0,NW,5.8,-,N/A,,Scattered Clouds,320,2013-08-02 13:15:00
9:34 AM,63.9,58.1,81,29.80,10.0,NW,4.6,-,N/A,,Clear,320,2013-08-02 13:34:00
9:55 AM,65.3,58.6,79,29.80,10.0,WNW,5.8,-,N/A,,Clear,300,2013-08-02 13:55:00
10:15 AM,66.2,58.3,76,29.81,10.0,NW,8.1,-,N/A,,Clear,310,2013-08-02 14:15:00
10:34 AM,67.1,57.9,72,29.80,10.0,WNW,6.9,-,N/A,,Clear,290,2013-08-02 14:34:00
10:55 AM,68.4,59.0,72,29.81,10.0,West,5.8,-,N/A,,Clear,270,2013-08-02 14:55:00
11:15 AM,69.4,59.4,70,29.81,10.0,West,6.9,-,N/A,,Scattered Clouds,270,2013-08-02 15:15:00
11:34 AM,69.6,59.0,69,29.81,10.0,WSW,5.8,-,N/A,,Scattered Clouds,250,2013-08-02 15:34:00
11:55 AM,69.6,58.5,68,29.81,10.0,West,5.8,-,N/A,,Mostly Cloudy,270,2013-08-02 15:55:00
12:15 PM,69.1,57.2,66,29.81,10.0,Calm,Calm,-,N/A,,Mostly Cloudy,0,2013-08-02 16:15:00
12:34 PM,69.1,57.2,66,29.81,10.0,WNW,4.6,-,N/A,,Mostly Cloudy,300,2013-08-02 16:34:00
12:55 PM,69.4,55.8,62,29.80,10.0,WNW,5.8,-,N/A,,Scattered Clouds,290,2013-08-02 16:55:00
1:14 PM,71.2,56.1,59,29.80,10.0,WNW,9.2,-,N/A,,Mostly Cloudy,290,2013-08-02 17:14:00
1:35 PM,71.2,56.8,60,29.80,10.0,NNW,6.9,-,N/A,,Mostly Cloudy,330,2013-08-02 17:35:00
1:55 PM,71.4,55.6,57,29.80,10.0,WNW,9.2,-,N/A,,Scattered Clouds,290,2013-08-02 17:55:00
2:14 PM,72.1,56.3,57,29.80,10.0,NW,6.9,-,N/A,,Mostly Cloudy,320,2013-08-02 18:14:00
2:35 PM,74.8,55.0,50,29.81,10.0,West,5.8,-,N/A,,Overcast,280,2013-08-02 18:35:00
2:54 PM,71.8,54.3,54,29.80,10.0,WNW,8.1,-,N/A,,Mostly Cloudy,290,2013-08-02 18:54:00
3:15 PM,75.2,54.7,49,29.80,10.0,NNW,9.2,-,N/A,,Mostly Cloudy,340,2013-08-02 19:15:00
3:34 PM,72.9,56.5,56,29.81,10.0,NW,4.6,-,N/A,,Mostly Cloudy,320,2013-08-02 19:34:00
3:54 PM,70.7,54.3,56,29.81,10.0,NW,10.4,-,N/A,,Mostly Cloudy,320,2013-08-02 19:54:00
4:15 PM,72.1,53.2,51,29.81,10.0,WNW,9.2,18.4,N/A,,Mostly Cloudy,300,2013-08-02 20:15:00
4:34 PM,70.7,54.3,56,29.81,10.0,NNW,8.1,-,N/A,,Overcast,330,2013-08-02 20:34:00
4:55 PM,71.4,53.2,53,29.81,10.0,NNW,11.5,16.1,N/A,,Overcast,340,2013-08-02 20:55:00
5:15 PM,72.9,51.6,47,29.81,10.0,NW,12.7,16.1,N/A,,Mostly Cloudy,320,2013-08-02 21:15:00
5:34 PM,73.4,52.7,48,29.82,10.0,NW,11.5,16.1,N/A,,Scattered Clouds,320,2013-08-02 21:34:00
5:55 PM,73.0,52.2,48,29.83,10.0,NW,11.5,19.6,N/A,,Scattered Clouds,320,2013-08-02 21:55:00
6:15 PM,72.7,53.4,51,29.83,10.0,NNW,9.2,-,N/A,,Mostly Cloudy,340,2013-08-02 22:15:00
6:34 PM,71.8,53.4,52,29.83,10.0,North,10.4,17.3,N/A,,Mostly Cloudy,350,2013-08-02 22:34:00
6:55 PM,70.3,53.6,55,29.83,10.0,NNW,12.7,17.3,N/A,,Scattered Clouds,340,2013-08-02 22:55:00
7:14 PM,69.8,53.2,56,29.84,10.0,NNW,9.2,-,N/A,,Clear,340,2013-08-02 23:14:00
7:35 PM,68.9,53.2,57,29.85,10.0,NNW,8.1,-,N/A,,Clear,340,2013-08-02 23:35:00
7:55 PM,67.6,53.2,60,29.86,10.0,NNW,8.1,-,N/A,,Clear,340,2013-08-02 23:55:00
8:14 PM,66.4,53.2,63,29.86,10.0,NNW,9.2,-,N/A,,Clear,340,2013-08-03 00:14:00
8:35 PM,64.9,53.2,66,29.87,10.0,NNW,6.9,-,N/A,,Clear,340,2013-08-03 00:35:00
8:55 PM,63.3,52.9,69,29.88,10.0,NNW,8.1,-,N/A,,Clear,340,2013-08-03 00:55:00
9:14 PM,62.1,52.9,72,29.88,10.0,NNW,6.9,-,N/A,,Clear,330,2013-08-03 01:14:00
9:35 PM,59.9,53.1,78,29.89,10.0,NNW,4.6,-,N/A,,Clear,330,2013-08-03 01:35:00
9:55 PM,58.6,52.9,81,29.90,10.0,NNW,4.6,-,N/A,,Clear,330,2013-08-03 01:55:00
10:14 PM,58.1,52.9,83,29.90,10.0,NNW,3.5,-,N/A,,Clear,330,2013-08-03 02:14:00
10:35 PM,55.2,51.8,88,29.91,10.0,NW,4.6,-,N/A,,Clear,310,2013-08-03 02:35:00
10:54 PM,54.9,52.2,91,29.92,10.0,NW,3.5,-,N/A,,Clear,310,2013-08-03 02:54:00
11:15 PM,55.4,52.7,91,29.92,10.0,West,3.5,-,N/A,,Clear,280,2013-08-03 03:15:00
11:35 PM,52.3,51.1,95,29.92,10.0,West,4.6,-,N/A,,Clear,280,2013-08-03 03:35:00
11:54 PM,53.6,51.8,94,29.92,10.0,West,4.6,-,N/A,,Clear,280,2013-08-03 03:54:00